Yunyao-1 40

operational
NORAD ID: 62732 Int'l Des: NNA 2025-013 Owner: YYAO Country: CN
LEOCIRCULARRETROGRADESSO

Über Yunyao-1 40

Beschreibung wird geladen...

Live-Position

3D-Globus wird geladen...

Nächste Überflüge

Höhenverlauf

Altitude vs Time

uPlot chart will show altitude changes over time

Zweizeiliger Elementsatz

1 62732U 25013D 26062.19180466 .00005192 00000-0 31879-3 0 9990
2 62732 97.6441 231.6131 0009373 41.1852 319.0083 15.10507990 61270
Epoch: 3. März 2026 • Age: 23 hours

Aktueller Status

Höhe 560.3 km
Geschwindigkeit 7.58 km/s
Subsatellitenpunkt -49.76°S, 105.04°W
Startdatum 20. Jan. 2025
Alter 1.1 years
Typ other

Technische Details

Klassifizierung Payload
Masse 50.00 kg
Trockenmasse 50.00 kg
Gesamtmasse 50.00 kg
Länge 2.00 m
Durchmesser 1.50 m
Spannweite 5.00 m
Form Box + pan
Hersteller CGSTL
Bus-Typ YY-1
Phasenstatus In Orbit
Besitzer/Staat YYAO/CN

Große Konstellationen

Loading constellations...